FW2480 Weather Reports


time (UTC)temp
F
wind
direction
speed
knots
gust
knots
rain 1hr
in
rain 24hr
in
rain mn
in
humidity
%
barometer
mb
20260507232509 77 55 0.0 4.3 0.00 1.47 1.47 88 1017.3
20260507232009 77 75 0.9 4.3 0.00 1.47 1.47 88 1017.3
20260507231508 77 109 0.9 5.2 0.00 1.47 1.47 88 1017.2
20260507231008 77 92 1.7 5.2 0.00 1.47 1.47 88 1017.2
20260507230508 77 95 0.9 5.2 0.00 1.47 1.47 88 1017.0
20260507230008 77 117 1.7 6.1 0.00 1.47 1.47 88 1016.9
20260507225507 77 98 0.9 6.1 0.00 1.47 1.47 88 1017.0
20260507225007 77 105 1.7 7.8 0.00 1.47 1.47 88 1016.9
20260507224510 77 121 1.7 7.8 0.00 1.47 1.47 89 1017.0
20260507224006 77 98 1.7 5.2 0.00 1.47 1.47 89 1016.9
20260507223507 77 90 0.9 6.1 0.00 1.47 1.47 89 1016.9
20260507223007 77 129 1.7 5.2 0.00 1.47 1.47 90 1016.9
20260507222506 77 105 0.0 2.6 0.00 1.47 1.47 90 1017.0
20260507222008 77 105 0.0 2.6 0.00 1.47 1.47 90 1017.1
20260507221506 77 105 0.0 0.9 0.00 1.47 1.47 90 1017.1
20260507221007 77 105 0.0 0.0 0.00 1.47 1.47 90 1017.1
20260507220509 77 105 0.0 3.5 0.00 1.47 1.47 89 1016.9
20260507220006 77 105 0.9 3.5 0.01 1.47 1.47 89 1016.9
20260507215507 77 106 0.0 3.5 0.01 1.47 1.47 89 1016.8
20260507215007 77 106 0.0 3.5 0.02 1.47 1.47 89 1016.8
20260507214505 77 106 0.0 0.0 0.02 1.47 1.47 89 1016.7
20260507214005 77 106 0.0 0.0 0.03 1.47 1.47 89 1016.6
20260507213505 77 106 0.0 2.6 0.04 1.47 1.47 89 1016.5
20260507213016 77 105 0.9 6.1 0.17 1.47 1.47 89 1016.3
20260507212504 77 128 0.9 6.1 0.28 1.47 1.47 90 1016.4
20260507212004 77 128 0.0 0.0 0.36 1.47 1.47 89 1016.4
20260507211504 77 128 0.0 6.1 0.48 1.47 1.47 88 1016.3
20260507211004 77 128 0.0 6.1 0.52 1.47 1.47 88 1016.3
20260507210507 77 205 0.9 3.5 0.57 1.47 1.47 88 1016.3
20260507210014 77 198 0.0 3.5 0.60 1.46 1.46 88 1016.3
20260507205503 76 198 0.9 4.3 0.63 1.46 1.46 89 1016.4
20260507205004 76 189 0.9 6.1 0.77 1.45 1.45 89 1016.4
20260507204504 76 257 1.7 6.1 0.86 1.45 1.45 90 1016.2
20260507204003 76 218 1.7 5.2 1.06 1.44 1.44 89 1016.2
20260507203502 76 135 0.0 8.7 1.27 1.43 1.43 89 1016.2
20260507203002 76 192 4.3 8.7 1.13 1.27 1.27 89 1016.5
20260507202501 76 164 1.7 8.7 1.05 1.17 1.17 89 1016.4
20260507202002 76 134 4.3 8.7 1.02 1.10 1.10 89 1016.5
20260507201503 76 119 0.9 6.1 0.94 0.98 0.98 89 1016.4
20260507201001 76 129 0.9 7.0 0.90 0.94 0.94 88 1016.4
20260507200601 76 123 2.6 7.0 0.85 0.89 0.89 89 1016.6
20260507200110 75 107 0.9 10.4 0.82 0.86 0.86 89 1016.5
20260507195559 75 54 0.9 11.3 0.79 0.83 0.83 87 1016.5
20260507195059 76 96 3.5 8.7 0.65 0.69 0.69 89 1016.7
20260507194700 75 76 4.3 16.5 0.57 0.61 0.61 87 1016.6
20260507194102 77 140 5.2 16.5 0.38 0.40 0.40 84 1016.6
20260507193557 78 152 4.3 10.4 0.16 0.16 0.16 86 1016.6
20260507193128 78 61 2.6 5.2 0.13 0.13 0.13 87 1016.7
20260507192555 79 115 0.9 6.1 0.12 0.12 0.12 87 1016.7
20260507192100 79 84 2.6 6.1 0.08 0.08 0.08 85 1016.6
20260507191600 80 119 1.7 6.1 0.04 0.04 0.04 85 1016.6
20260507191058 80 104 1.7 5.2 0.04 0.04 0.04 86 1016.6
20260507190555 79 190 0.0 4.3 0.04 0.04 0.04 87 1016.6
20260507190054 78 185 1.7 7.0 0.04 0.04 0.04 86 1016.7
20260507185553 79 118 2.6 7.8 0.04 0.04 0.04 86 1016.8
20260507185053 79 118 2.6 10.4 0.04 0.04 0.04 86 1016.9
20260507184553 79 114 3.5 10.4 0.03 0.03 0.03 85 1016.9
20260507184057 80 121 3.5 13.0 0.02 0.02 0.02 84 1016.9
20260507183552 81 132 7.0 13.0 0.00 0.00 0.00 82 1016.9
20260507183100 81 88 4.3 13.0 0.00 0.00 0.00 81 1016.7
20260507182553 81 119 5.2 11.3 0.00 0.00 0.00 80 1016.8
20260507182053 81 142 1.7 8.7 0.00 0.00 0.00 79 1017.0
20260507181552 83 84 2.6 8.7 0.00 0.00 0.00 78 1016.9
20260507181051 82 61 0.9 5.2 0.00 0.00 0.00 78 1017.0
20260507180551 82 59 1.7 8.7 0.00 0.00 0.00 78 1017.0
20260507180049 83 101 2.6 8.7 0.00 0.00 0.00 76 1017.1
20260507175555 85 52 5.2 8.7 0.00 0.00 0.00 73 1017.3
20260507175048 84 134 4.3 8.7 0.00 0.00 0.00 72 1017.3
20260507174549 84 132 2.6 6.1 0.00 0.00 0.00 71 1017.4
20260507174047 85 69 2.6 7.0 0.00 0.00 0.00 69 1017.4
20260507173550 86 74 3.5 8.7 0.00 0.00 0.00 67 1017.6
20260507173115 86 109 3.5 7.8 0.00 0.00 0.00 66 1017.5
20260507172548 87 96 2.6 5.2 0.00 0.00 0.00 65 1017.7
20260507172046 88 82 0.9 7.8 0.00 0.00 0.00 66 1017.6
20260507171548 87 129 1.7 8.7 0.00 0.00 0.00 65 1017.7
20260507171046 88 113 1.7 8.7 0.00 0.00 0.00 65 1017.8
20260507170546 87 106 1.7 8.7 0.00 0.00 0.00 64 1017.9
20260507170049 87 116 3.5 8.7 0.00 0.00 0.00 66 1017.9
20260507165544 87 123 4.3 8.7 0.00 0.00 0.00 64 1018.0
20260507165042 87 52 2.6 11.3 0.00 0.00 0.00 66 1018.1
20260507164644 86 117 5.2 11.3 0.00 0.00 0.00 66 1018.1
20260507164042 86 116 1.7 13.0 0.00 0.00 0.00 67 1018.2
20260507163542 86 80 3.5 7.8 0.00 0.00 0.00 65 1018.2
20260507163042 87 101 1.7 7.8 0.00 0.00 0.00 67 1018.3
20260507162541 86 126 1.7 7.8 0.00 0.00 0.00 67 1018.3
20260507162040 86 222 2.6 8.7 0.00 0.00 0.00 66 1018.4
20260507161542 85 111 3.5 9.6 0.00 0.00 0.00 68 1018.6
20260507161039 85 113 3.5 8.7 0.00 0.00 0.00 68 1018.5
20260507160539 86 82 2.6 7.0 0.00 0.00 0.00 68 1018.5
20260507160058 84 113 3.5 9.6 0.00 0.00 0.00 69 1018.5
20260507155539 85 39 1.7 9.6 0.00 0.00 0.00 68 1018.6
20260507155040 86 45 2.6 8.7 0.00 0.00 0.00 68 1018.6
20260507154538 85 57 3.5 8.7 0.00 0.00 0.00 68 1018.6
20260507154037 85 116 1.7 7.0 0.00 0.00 0.00 69 1018.7
20260507153537 85 86 3.5 7.0 0.00 0.00 0.00 69 1018.8
20260507153037 84 95 2.6 6.1 0.00 0.00 0.00 70 1018.9
20260507152537 84 49 0.0 7.0 0.00 0.00 0.00 72 1018.8
20260507152037 85 130 1.7 7.8 0.00 0.00 0.00 70 1018.9
20260507151537 85 124 2.6 7.8 0.00 0.00 0.00 70 1019.0
20260507151037 85 49 0.9 8.7 0.00 0.00 0.00 69 1019.0
20260507150540 85 130 1.7 8.7 0.00 0.00 0.00 69 1019.1
20260507150035 84 123 1.7 6.1 0.00 0.00 0.00 70 1019.1
20260507145536 84 107 2.6 6.1 0.00 0.00 0.00 71 1019.0
20260507145035 84 52 0.0 5.2 0.00 0.00 0.00 71 1019.0
20260507144544 84 53 1.7 5.2 0.00 0.00 0.00 71 1019.2
20260507144036 83 69 0.9 6.1 0.00 0.00 0.00 72 1019.1
20260507143535 84 77 1.7 6.1 0.00 0.00 0.00 71 1019.2
20260507143035 84 94 0.9 6.1 0.00 0.00 0.00 70 1019.2
20260507142534 84 39 1.7 6.1 0.00 0.00 0.00 71 1019.3
20260507142036 85 102 0.0 7.0 0.00 0.00 0.00 69 1019.3
20260507141533 85 120 2.6 7.0 0.00 0.00 0.00 69 1019.2
20260507141032 85 97 1.7 6.1 0.00 0.00 0.00 71 1019.2
20260507140531 84 62 1.7 5.2 0.00 0.00 0.00 71 1019.2
20260507140033 83 132 0.9 5.2 0.00 0.00 0.00 72 1019.2
20260507135529 82 137 1.7 5.2 0.00 0.00 0.00 73 1019.4
20260507135029 82 86 0.9 5.2 0.00 0.00 0.00 74 1019.3
20260507134529 82 275 0.9 4.3 0.00 0.00 0.00 73 1019.4
20260507134032 83 143 0.9 4.3 0.00 0.00 0.00 71 1019.3
20260507133527 83 130 0.0 3.5 0.00 0.00 0.00 74 1019.2
20260507133027 82 130 0.0 1.7 0.00 0.00 0.00 74 1019.2
20260507132526 81 130 0.0 3.5 0.00 0.00 0.00 74 1019.3
20260507132126 81 130 0.0 3.5 0.00 0.00 0.00 74 1019.1
20260507131530 81 137 0.9 4.3 0.00 0.00 0.00 73 1019.1
20260507131027 81 108 0.9 7.0 0.00 0.00 0.00 73 1019.1
20260507130100 82 138 1.7 4.3 0.00 0.00 0.00 73 1018.9
20260507125600 83 61 0.9 7.0 0.00 0.00 0.00 73 1018.9
20260507125100 82 98 2.6 7.0 0.00 0.00 0.00 73 1019.0
20260507124602 82 127 0.9 5.2 0.00 0.00 0.00 76 1019.0
20260507124056 82 79 2.6 7.0 0.00 0.00 0.00 75 1018.8
20260507123556 82 101 2.6 7.0 0.00 0.00 0.00 77 1018.9
20260507123055 81 109 0.9 3.5 0.00 0.00 0.00 77 1018.7
20260507122553 81 107 0.0 3.5 0.00 0.00 0.00 79 1018.9
20260507122052 81 107 0.9 4.3 0.00 0.00 0.00 80 1018.8
20260507121551 80 103 2.6 5.2 0.00 0.00 0.00 79 1018.7
20260507121050 80 34 0.0 7.0 0.00 0.00 0.00 81 1018.6
20260507120549 80 107 0.9 5.2 0.00 0.00 0.00 81 1018.5
20260507120048 80 15 0.0 5.2 0.00 0.00 0.00 82 1018.4
20260507115547 80 34 2.6 5.2 0.00 0.00 0.00 81 1018.5
20260507115046 79 96 0.9 5.2 0.00 0.00 0.00 82 1018.5
20260507114552 79 57 0.9 3.5 0.00 0.00 0.00 83 1018.3
20260507114047 78 91 0.9 3.5 0.00 0.00 0.00 84 1018.4
20260507113540 78 90 0.9 3.5 0.00 0.00 0.00 86 1018.3
20260507113040 78 118 0.9 5.2 0.00 0.00 0.00 86 1018.2
20260507112539 77 217 0.9 5.2 0.00 0.00 0.00 87 1018.2
20260507112039 77 177 0.0 3.5 0.00 0.00 0.00 87 1018.2
20260507111550 77 177 0.0 4.3 0.00 0.00 0.00 88 1018.2
20260507111036 77 317 0.0 4.3 0.00 0.00 0.00 89 1018.2
20260507110536 76 184 0.0 0.9 0.00 0.00 0.00 89 1018.2
20260507110035 76 185 0.0 1.7 0.00 0.00 0.00 89 1018.3
20260507105533 76 188 0.0 3.5 0.00 0.00 0.00 90 1018.1
20260507105033 76 244 0.0 3.5 0.00 0.00 0.00 90 1018.3
20260507104531 75 211 0.0 0.0 0.00 0.00 0.00 91 1018.2
20260507104031 75 211 0.0 0.0 0.00 0.00 0.00 91 1018.1
20260507103528 75 211 0.0 0.0 0.00 0.00 0.00 91 1018.1
20260507103027 75 211 0.0 0.0 0.00 0.00 0.00 91 1018.0
20260507102525 75 210 0.0 0.0 0.00 0.00 0.00 91 1018.1
20260507102024 75 212 0.0 0.0 0.00 0.00 0.00 91 1018.1
20260507101522 75 212 0.0 0.0 0.00 0.00 0.00 91 1017.9
20260507101023 74 212 0.0 0.0 0.00 0.00 0.00 91 1017.9
20260507100521 74 211 0.0 0.0 0.00 0.00 0.00 91 1017.9
20260507100018 74 214 0.0 0.0 0.00 0.00 0.00 90 1017.8
20260507095517 74 214 0.0 0.0 0.00 0.00 0.00 90 1017.6
20260507095017 74 213 0.0 0.0 0.00 0.00 0.00 90 1017.6
20260507094520 74 214 0.0 0.0 0.00 0.00 0.00 90 1017.6
20260507094016 75 214 0.0 0.0 0.00 0.00 0.00 90 1017.6
20260507093516 75 214 0.0 0.0 0.00 0.00 0.00 90 1017.6
20260507093016 75 214 0.0 0.0 0.00 0.00 0.00 90 1017.6
20260507092517 75 214 0.0 0.0 0.00 0.00 0.00 90 1017.7
20260507092016 75 214 0.0 1.7 0.00 0.00 0.00 90 1017.6
20260507091515 75 214 0.0 1.7 0.00 0.00 0.00 90 1017.6
20260507091014 75 211 0.0 3.5 0.00 0.00 0.00 90 1017.7
20260507090515 75 211 0.0 3.5 0.00 0.00 0.00 90 1017.7
20260507090015 75 186 0.0 3.5 0.00 0.00 0.00 90 1017.6
20260507085514 75 186 0.0 3.5 0.00 0.00 0.00 90 1017.7
20260507085014 75 177 0.0 0.9 0.00 0.00 0.00 90 1017.7
20260507084515 75 177 0.0 0.9 0.00 0.00 0.00 90 1017.6
20260507084016 75 177 0.0 0.0 0.00 0.00 0.00 90 1017.7
20260507083513 75 177 0.0 0.0 0.00 0.00 0.00 90 1017.6
20260507083014 74 178 0.0 0.0 0.00 0.00 0.00 90 1017.7
20260507082512 75 178 0.0 0.0 0.00 0.00 0.00 90 1017.5
20260507082012 75 178 0.0 0.0 0.00 0.00 0.00 89 1017.6
20260507081513 75 178 0.0 0.0 0.00 0.00 0.00 89 1017.5
20260507081012 75 178 0.0 0.0 0.00 0.00 0.00 89 1017.5
20260507080518 75 178 0.0 0.0 0.00 0.00 0.00 89 1017.4
20260507080013 75 178 0.0 0.0 0.00 0.00 0.00 89 1017.4
20260507075510 75 178 0.0 0.0 0.00 0.00 0.00 89 1017.4
20260507075010 75 178 0.0 0.0 0.00 0.00 0.00 90 1017.5
20260507074510 75 178 0.0 1.7 0.00 0.00 0.00 90 1017.5
20260507074013 75 178 0.9 3.5 0.00 0.00 0.00 90 1017.5
20260507073508 75 177 0.9 3.5 0.00 0.00 0.00 89 1017.6
20260507073008 75 171 0.0 2.6 0.00 0.00 0.00 89 1017.7
20260507072508 75 171 0.0 0.0 0.00 0.00 0.00 89 1017.7
20260507072007 75 171 0.0 0.0 0.00 0.00 0.00 89 1017.6
20260507071507 75 171 0.0 0.9 0.00 0.00 0.00 89 1017.6
20260507071006 75 171 0.0 0.9 0.00 0.00 0.00 89 1017.7
20260507070507 75 171 0.0 1.7 0.00 0.00 0.00 89 1017.8
20260507070009 75 171 0.0 1.7 0.00 0.00 0.00 89 1017.7
20260507065506 75 171 0.0 2.6 0.00 0.00 0.00 89 1017.8
20260507065003 75 171 0.9 3.5 0.00 0.00 0.00 89 1017.9
20260507064503 75 163 0.0 0.0 0.00 0.00 0.00 89 1018.0
20260507064003 75 163 0.0 0.0 0.00 0.00 0.00 89 1018.0
20260507063502 75 163 0.0 0.0 0.00 0.00 0.00 89 1018.1
20260507063002 75 163 0.0 0.0 0.00 0.00 0.00 88 1018.2
20260507062502 76 163 0.0 0.0 0.00 0.00 0.00 88 1018.1
20260507062101 76 163 0.0 0.0 0.00 0.00 0.00 88 1018.2
20260507061601 76 163 0.0 0.0 0.00 0.00 0.00 88 1018.2
20260507061100 76 163 0.0 0.0 0.00 0.00 0.00 88 1018.2
20260507060601 76 163 0.0 0.0 0.00 0.00 0.00 88 1018.3
20260507055557 76 163 0.0 0.0 0.00 0.00 0.00 88 1018.5
20260507055057 76 163 0.0 0.0 0.00 0.00 0.00 88 1018.5
20260507054607 76 163 0.0 0.0 0.00 0.00 0.00 88 1018.5
20260507054055 76 163 0.0 1.7 0.00 0.00 0.00 88 1018.5
20260507053555 76 163 0.0 1.7 0.00 0.00 0.00 88 1018.6
20260507053055 76 163 0.0 1.7 0.00 0.00 0.00 88 1018.6
20260507052553 76 244 0.0 1.7 0.00 0.00 0.00 88 1018.7
20260507052053 76 244 0.0 1.7 0.00 0.00 0.00 88 1018.8
20260507051555 76 246 0.0 0.0 0.00 0.00 0.00 88 1018.9
20260507051052 76 246 0.0 1.7 0.00 0.00 0.00 88 1018.9
20260507050551 76 246 0.0 3.5 0.00 0.00 0.00 88 1019.1
20260507050049 76 248 0.9 3.5 0.00 0.00 0.00 87 1019.2
20260507045552 76 110 0.0 0.0 0.00 0.00 0.00 87 1019.2
20260507045049 76 110 0.0 0.0 0.00 0.00 0.00 87 1019.4
20260507044548 76 110 0.0 0.0 0.00 0.00 0.00 87 1019.5
20260507044047 76 110 0.0 0.0 0.00 0.00 0.00 87 1019.6
20260507043547 76 110 0.0 0.0 0.00 0.00 0.00 87 1019.6
20260507043047 77 110 0.0 0.0 0.00 0.00 0.00 87 1019.7
20260507042546 77 110 0.0 0.0 0.00 0.00 0.00 87 1019.7
20260507042045 77 110 0.0 0.0 0.00 0.00 0.00 87 1019.8
20260507041554 77 109 0.0 0.0 0.00 0.00 0.00 87 1019.9
20260507041045 77 109 0.0 0.0 0.00 0.00 0.00 87 1019.8
20260507040544 77 109 0.0 0.0 0.00 0.00 0.00 87 1019.9
20260507040043 77 109 0.0 0.0 0.00 0.00 0.00 87 1019.8
20260507035545 77 109 0.0 0.0 0.00 0.00 0.00 86 1019.9
20260507035044 77 109 0.0 0.0 0.00 0.00 0.00 86 1019.9
20260507034544 77 109 0.0 0.0 0.00 0.00 0.00 86 1020.1
20260507034042 77 109 0.0 0.0 0.00 0.00 0.00 86 1020.1
20260507033542 77 109 0.0 0.0 0.00 0.00 0.00 86 1020.0
20260507033044 77 109 0.0 0.0 0.00 0.00 0.00 86 1020.2
20260507032542 77 109 0.0 0.0 0.00 0.00 0.00 87 1020.0
20260507032044 77 109 0.0 0.0 0.00 0.00 0.00 87 1020.1
20260507031542 77 109 0.0 0.0 0.00 0.00 0.00 87 1020.1
20260507031042 77 109 0.0 0.0 0.00 0.00 0.00 87 1020.2
20260507030542 77 109 0.0 0.0 0.00 0.00 0.00 87 1020.2
20260507030042 77 109 0.0 0.0 0.00 0.00 0.00 87 1020.1
20260507025541 76 109 0.0 0.0 0.00 0.00 0.00 87 1020.2
20260507025042 76 109 0.0 0.0 0.00 0.00 0.00 87 1020.3
20260507024541 77 109 0.0 0.0 0.00 0.00 0.00 87 1020.3
20260507024041 77 109 0.0 0.0 0.00 0.00 0.00 87 1020.3
20260507023540 77 109 0.0 0.0 0.00 0.00 0.00 87 1020.2
20260507023041 77 109 0.0 0.0 0.00 0.00 0.00 87 1020.2
20260507022540 77 109 0.0 0.0 0.00 0.00 0.00 87 1020.2
20260507022041 77 109 0.0 0.0 0.00 0.00 0.00 87 1020.1
20260507021545 77 109 0.0 0.0 0.00 0.00 0.00 87 1020.1
20260507021040 77 109 0.0 0.0 0.00 0.00 0.00 87 1020.2
20260507020540 77 109 0.0 0.0 0.00 0.00 0.00 87 1020.1
20260507020040 77 109 0.0 0.0 0.00 0.00 0.00 87 1020.1
20260507015539 77 109 0.0 0.0 0.00 0.00 0.00 87 1020.0
20260507015039 77 109 0.0 1.7 0.00 0.00 0.00 87 1020.0
20260507014553 77 109 0.0 2.6 0.00 0.00 0.00 86 1020.0
20260507014039 77 109 0.0 2.6 0.00 0.00 0.00 86 1020.0
20260507013538 77 109 0.0 0.0 0.00 0.00 0.00 86 1020.0
20260507013048 77 110 0.0 0.0 0.00 0.00 0.00 86 1019.8
20260507012538 77 110 0.0 3.5 0.00 0.00 0.00 85 1019.8
20260507012040 77 111 0.0 5.2 0.00 0.00 0.00 85 1019.8
20260507011541 77 109 0.9 3.5 0.00 0.00 0.00 85 1019.7
20260507011039 77 109 0.9 3.5 0.00 0.00 0.00 85 1019.7
20260507010538 78 110 0.9 3.5 0.00 0.00 0.00 84 1019.6
20260507010038 78 123 0.9 3.5 0.00 0.00 0.00 84 1019.6
20260507005537 78 99 0.9 5.2 0.00 0.00 0.00 84 1019.6
20260507005037 78 102 1.7 6.1 0.00 0.00 0.00 84 1019.5
20260507004538 78 62 1.7 6.1 0.00 0.00 0.00 84 1019.5
20260507004037 78 101 1.7 5.2 0.00 0.00 0.00 84 1019.5
20260507003536 78 85 0.9 3.5 0.00 0.00 0.00 83 1019.4
20260507003038 78 92 0.9 4.3 0.00 0.00 0.00 83 1019.3
20260507002537 78 71 1.7 4.3 0.00 0.00 0.00 83 1019.4
20260507002036 78 61 1.7 6.1 0.00 0.00 0.00 82 1019.3
20260507001544 78 89 1.7 6.1 0.00 0.00 0.00 82 1019.2
20260507001036 78 130 1.7 5.2 0.00 0.00 0.00 82 1019.0
20260507000536 79 82 1.7 5.2 0.00 0.00 0.00 82 1018.9
20260507000035 79 139 1.7 7.0 0.00 0.00 0.00 81 1018.7
20260506235535 79 57 2.6 7.0 0.00 0.00 0.00 81 1018.8
20260506235035 79 78 1.7 5.2 0.00 0.00 0.00 80 1018.8
20260506234535 79 50 2.6 5.2 0.00 0.00 0.00 80 1018.6
20260506234038 79 24 1.7 4.3 0.00 0.00 0.00 79 1018.7
20260506233537 80 188 0.9 5.2 0.00 0.00 0.00 79 1018.7
20260506233038 80 106 0.9 5.2 0.00 0.00 0.00 78 1018.7